Meteo Giornale » Osservazioni meteo Italia » Pisa-S Giusto

ore: 16:45 - Osservazioni Meteo Pisa-S Giusto
Lat. 43° 41' N Lon. 10° 23' E Alt. 2 metri s.l.m.

poco_nuvoloso Europe/Rome

22 °C

Poco Nuvoloso

Temp. 24 Ore

12 °C

24 °C

Ovest/Nord-Ovest

13 Km/h

Dew point 13 °C

Umidità 56 %

Visibilità  10 Km

Il sole sorge alle ore 07:08

Il sole tramonta alle ore 19:11

Data e Ora Cielo e Fenomeni T °C DP °C Um. % Pres. hPa Vis. km Vento km/h
Oggi h: 16:45 poco_nuvoloso Poco Nuvoloso 22 13 56 1018 10 O/NO 13
Oggi h: 16:15 poco_nuvoloso Poco Nuvoloso 23 14 56 1018 10 O 16.7
Oggi h: 15:45 poco_nuvoloso Poco Nuvoloso 23 14 56 1018 10 O 14.8
Oggi h: 15:15 poco_nuvoloso Poco Nuvoloso 24 11 43 1018 10 N 5.5
Oggi h: 14:45 poco_nuvoloso Poco Nuvoloso 24 11 43 1018 10 E/SE 9.3
Oggi h: 14:15 poco_nuvoloso Poco Nuvoloso 24 11 43 1018 10 SE 9.3
Oggi h: 13:45 poco_nuvoloso Poco Nuvoloso 23 10 43 1018 10 E/SE 9.3
Oggi h: 13:15 poco_nuvoloso Poco Nuvoloso 23 11 46 1018 10 E/SE 13
Oggi h: 12:45 sereno Sereno 22 12 53 1018 10 E/SE 11.1
Oggi h: 12:15 sereno Sereno 21 12 56 1018 10 E/SE 14.8
Oggi h: 11:45 sereno Sereno 21 13 60 1019 10 E/SE 11.1
Oggi h: 11:15 sereno Sereno 20 14 68 1019 10 E/SE 13
Oggi h: 10:45 sereno Sereno 18 13 72 1019 10 E/SE 13
Oggi h: 10:15 sereno Sereno 18 14 77 1019 10 E/SE 11.1
Oggi h: 09:45 sereno Sereno 17 14 82 1019 10 E/SE 11.1
Oggi h: 09:15 sereno Sereno 15 14 93 1019 10 SE 7.4
Oggi h: 08:45 poco_nuvoloso Poco Nuvoloso 14 13 93 1019 10 E/SE 7.4
Oggi h: 08:15 poco_nuvoloso Poco Nuvoloso 13 13 100 1018 10 E/SE 7.4
Oggi h: 07:45 poco_nuvoloso Poco Nuvoloso 13 12 93 1018 10 N 5.5
Oggi h: 07:15 poco_nuvoloso Poco Nuvoloso 12 11 93 1018 10 E 11.1
Oggi h: 06:45 nuvoloso Nuvoloso 12 12 100 1018 6 E 7.4
Oggi h: 06:15 foschia Foschia 13 13 100 1018 4 E/SE 7.4
Oggi h: 05:45 foschia Foschia 13 13 100 1018 4 E/SE 7.4
Oggi h: 05:15 foschia Foschia 14 14 100 1018 1 E 11.1
Oggi h: 04:45 nebbia Nebbia 14 13 93 1018 0.4 N 5.5
Oggi h: 04:15 nebbia Nebbia 14 13 93 1018 0.5 N 5.5
Oggi h: 03:45 nebbia Nebbia 14 14 100 1018 0.6 E/SE 7.4
Oggi h: 03:15 nebbia Nebbia 14 14 100 1019 0.6 E/SE 7.4
Oggi h: 02:45 nebbia Nebbia 14 14 100 1019 0.8 E/SE 7.4
Oggi h: 02:15 foschia Foschia 14 14 100 1019 3 N 5.5
Oggi h: 01:45 foschia Foschia 14 14 100 1019 5 N 3.7
Oggi h: 01:15 sereno Sereno 14 14 100 1019 10 N 3.7
Oggi h: 00:45 sereno Sereno 14 13 93 1019 10 N 3.7
Oggi h: 00:15 nuvoloso Nuvoloso 15 14 93 1019 10 N 3.7
Ieri h: 23:45 nuvoloso Nuvoloso 15 15 100 1019 10 N 3.7
Ieri h: 23:15 nuvoloso Nuvoloso 16 15 93 1019 10 N 3.7
Ieri h: 22:45 nuvoloso Nuvoloso 16 15 93 1019 10 N 3.7
Ieri h: 22:15 nuvoloso Nuvoloso 17 16 93 1019 10 E/SE 9.3
Ieri h: 21:45 nuvoloso Nuvoloso 17 16 93 1019 10 E/SE 9.3
Ieri h: 21:15 nuvoloso Nuvoloso 18 16 88 1019 10 N 3.7
Ieri h: 20:45 nuvoloso Nuvoloso 18 17 93 1019 10 N 3.7
Ieri h: 20:15 nuvoloso Nuvoloso 18 16 88 1018 10 N 5.5
Ieri h: 19:45 nuvoloso Nuvoloso 19 17 88 1018 10 E/SE 9.3
Ieri h: 19:15 molto_nuvoloso Molto Nuvoloso 19 17 88 1018 10 E/SE 16.7
Ieri h: 18:45 molto_nuvoloso Molto Nuvoloso 21 17 77 1018 10 SE 7.4
Ieri h: 18:15 nuvoloso Nuvoloso 21 17 77 1018 10 SO 14.8
Ieri h: 17:45 nuvoloso Nuvoloso 22 17 73 1018 10 O 9.3